Weather observations for the past three days for
Grand Junction Regional Airport
| Date | Time (mdt) | Wind (mph) | Vis. (mi.) | Weather | Sky Cond. | Temperature (ºF) | Relative Humidity | Wind Chill (°F) | Heat Index (°F) | Pressure | Precipitation (in) | ||||||
|---|---|---|---|---|---|---|---|---|---|---|---|---|---|---|---|---|---|
| Air | Dwpt | 6 hour | altimeter (in) | sea level (mb) | 1 hr | 3 hr | 6 hr | ||||||||||
| Max. | Min. | ||||||||||||||||
| 07 | 18:53 | NW 7 | 10.00 | Fair | CLR | 72 | 24.1 | 17% | 29.96 | 1010.5 | |||||||
| 07 | 17:53 | NW 9 G 18 | 10.00 | Fair | CLR | 72 | 24.1 | 73 | 59 | 17% | 29.97 | 1011.0 | |||||
| 07 | 16:53 | W 10 | 10.00 | Fair | CLR | 72 | 24.1 | 17% | 29.98 | 1011.1 | |||||||
| 07 | 15:53 | W 10 | 10.00 | Fair | CLR | 70 | 24.1 | 18% | 30.01 | 1012.5 | |||||||
| 07 | 14:53 | W 7 G 21 | 10.00 | Fair | CLR | 66.9 | 23 | 19% | 30.05 | 1013.8 | |||||||
| 07 | 13:53 | NW 6 | 10.00 | Fair | CLR | 66 | 21.9 | 19% | 30.08 | 1015.2 | |||||||
| 07 | 12:53 | SE 5 | 10.00 | Fair | CLR | 62.1 | 19.9 | 20% | 30.12 | 1016.6 | |||||||
| 07 | 11:53 | Calm | 10.00 | Fair | CLR | 59 | 19 | 60.1 | 37 | 21% | 30.15 | 1017.9 | |||||
| 07 | 10:53 | Vrbl 3 | 10.00 | Fair | CLR | 55.9 | 19.9 | 24% | 30.17 | 1018.5 | |||||||
| 07 | 09:53 | SE 9 | 10.00 | Fair | CLR | 53.1 | 21 | 28% | 30.19 | 1019.6 | |||||||
| 07 | 08:53 | E 10 | 10.00 | Fair | CLR | 48.9 | 21 | 33% | 45 | 30.21 | 1020.4 | ||||||
| 07 | 07:53 | E 10 | 10.00 | Fair | CLR | 44.1 | 23 | 43% | 39 | 30.22 | 1020.8 | ||||||
| 07 | 06:53 | E 10 | 10.00 | Fair | CLR | 39 | 21.9 | 50% | 33 | 30.21 | 1020.6 | ||||||
| 07 | 05:53 | E 7 | 10.00 | Fair | CLR | 37 | 21 | 46 | 37 | 52% | 32 | 30.2 | 1020.5 | ||||
| 07 | 04:53 | E 15 | 10.00 | Fair | CLR | 42.1 | 21 | 43% | 35 | 30.19 | 1019.7 | ||||||
| 07 | 03:53 | E 8 | 10.00 | Fair | CLR | 39.9 | 21 | 47% | 35 | 30.18 | 1019.7 | ||||||
| 07 | 02:53 | E 13 | 10.00 | Fair | CLR | 43 | 18 | 37% | 37 | 30.18 | 1019.5 | ||||||
| 07 | 01:53 | E 10 | 10.00 | Fair | CLR | 42.1 | 19 | 40% | 37 | 30.18 | 1019.7 | ||||||
| 07 | 00:53 | E 9 | 10.00 | Fair | CLR | 44.1 | 17.1 | 34% | 40 | 30.18 | 1019.4 | ||||||
| 06 | 23:53 | E 7 | 10.00 | Fair | CLR | 45 | 19 | 59 | 45 | 35% | 42 | 30.18 | 1019.6 | ||||
| 06 | 22:53 | E 9 | 10.00 | Fair | CLR | 48 | 14 | 25% | 44 | 30.17 | 1019.2 | ||||||
| 06 | 21:53 | NE 6 | 10.00 | Fair | CLR | 46.9 | 15.1 | 28% | 45 | 30.16 | 1019.3 | ||||||
| 06 | 20:53 | Calm | 10.00 | Fair | CLR | 51.1 | 18 | 27% | 30.13 | 1018.2 | |||||||
| 06 | 19:53 | SW 8 | 10.00 | Fair | CLR | 55.9 | 16 | 21% | 30.11 | 1017.1 | |||||||
| 06 | 18:53 | W 10 G 20 | 10.00 | Fair | CLR | 57.9 | 15.1 | 18% | 30.09 | 1016.2 | |||||||
| 06 | 17:53 | W 13 G 16 | 10.00 | Fair | CLR | 57.9 | 16 | 59 | 51.1 | 19% | 30.08 | 1015.6 | |||||
| 06 | 16:53 | W 15 G 21 | 10.00 | Fair | CLR | 57.9 | 19 | 22% | 30.07 | 1014.8 | |||||||
| 06 | 15:53 | NW 13 G 20 | 10.00 | Fair | CLR | 57.9 | 16 | 19% | 30.08 | 1015.2 | |||||||
| 06 | 14:53 | Calm | 10.00 | Partly Cloudy | SCT080 | 55 | 17.1 | 22% | 30.09 | 1016.0 | |||||||
| 06 | 13:53 | NW 12 G 25 | 10.00 | Fair | CLR | 55.9 | 16 | 21% | 30.08 | 1015.2 | |||||||
| 06 | 12:53 | N 15 G 25 | 10.00 | A Few Clouds | FEW075 | 55 | 15.1 | 21% | 30.08 | 1015.0 | |||||||
| 06 | 11:53 | W 7 G 17 | 10.00 | A Few Clouds | FEW070 | 52 | 19.9 | 52 | 41 | 28% | 30.07 | 1015.0 | 0.05 | ||||
| 06 | 10:53 | NW 13 | 10.00 | Fair | CLR | 51.1 | 21 | 31% | 30.05 | 1014.2 | |||||||
| 06 | 09:53 | NW 9 | 10.00 | Fair | CLR | 46.9 | 28 | 48% | 43 | 30.03 | 1013.7 | ||||||
| 06 | 08:53 | N 10 | 10.00 | A Few Clouds | FEW036 FEW100 | 43 | 33.1 | 68% | 38 | 30.03 | 1014.0 | 0.05 | |||||
| 06 | 07:53 | S 6 | 10.00 | Overcast | OVC080 | 41 | 37 | 86% | 38 | 29.99 | 1012.5 | ||||||
| 06 | 06:53 | NE 8 | 10.00 | Light Rain | FEW030 OVC041 | 41 | 35.1 | 79% | 36 | 29.95 | 1010.8 | 0.05 | |||||
| 06 | 05:53 | NE 10 | 10.00 | Light Rain | OVC045 | 46 | 36 | 55 | 46 | 68% | 42 | 29.88 | 1007.8 | ||||
| 06 | 04:53 | Vrbl 5 | 10.00 | Overcast | BKN065 OVC075 | 50 | 33.1 | 52% | 49 | 29.84 | 1005.6 | ||||||
| 06 | 03:53 | N 5 | 10.00 | Partly Cloudy | FEW080 SCT100 | 48.9 | 32 | 52% | 48 | 29.84 | 1005.7 | ||||||
| 06 | 02:53 | N 5 | 10.00 | Partly Cloudy | SCT110 | 46.9 | 33.1 | 59% | 45 | 29.82 | 1005.2 | ||||||
| 06 | 01:53 | NE 5 | 10.00 | Partly Cloudy | SCT085 | 52 | 30.9 | 45% | 29.82 | 1004.8 | |||||||
| 06 | 00:53 | E 3 | 10.00 | Mostly Cloudy | BKN095 | 53.1 | 32 | 45% | 29.82 | 1005.0 | |||||||
| 05 | 23:53 | E 9 | 10.00 | Fair | CLR | 55 | 33.1 | 66 | 55 | 44% | 29.81 | 1004.5 | |||||
| 05 | 22:53 | NW 3 | 10.00 | Overcast | BKN090 OVC110 | 55.9 | 34 | 44% | 29.8 | 1004.3 | |||||||
| 05 | 21:53 | NW 8 | 10.00 | Overcast | OVC110 | 55.9 | 34 | 44% | 29.8 | 1004.3 | |||||||
| 05 | 20:53 | W 5 | 10.00 | Overcast | OVC110 | 55.9 | 33.1 | 42% | 29.77 | 1003.8 | |||||||
| 05 | 19:53 | NW 15 | 10.00 | Fair | CLR | 60.1 | 28.9 | 31% | 29.75 | 1002.9 | |||||||
| 05 | 18:53 | W 21 | 10.00 | Fair and Breezy | CLR | 62.1 | 28.9 | 29% | 29.71 | 1002.1 | |||||||
| 05 | 17:53 | NW 22 G 31 | 10.00 | Fair and Breezy | CLR | 66 | 26.1 | 72 | 66 | 22% | 29.67 | 1000.5 | |||||
| 05 | 16:53 | W 23 G 30 | 10.00 | Fair and Breezy | CLR | 71.1 | 9 | 9% | 29.67 | 1000.0 | |||||||
| 05 | 15:53 | W 20 G 30 | 10.00 | Fair | CLR | 70 | 10 | 10% | 29.68 | 1000.2 | |||||||
| 05 | 14:53 | W 22 G 35 | 7.00 | Fair and Breezy | CLR | 70 | 10 | 10% | 29.7 | 1000.8 | |||||||
| 05 | 13:53 | W 25 G 33 | 9.00 | Fair and Breezy | CLR | 71.1 | 12.9 | 10% | 29.71 | 1000.8 | |||||||
| 05 | 12:53 | W 21 G 29 | 10.00 | A Few Clouds and Breezy | FEW100 | 69.1 | 17.1 | 14% | 29.73 | 1001.2 | |||||||
| 05 | 11:53 | W 9 G 22 | 10.00 | Fair | CLR | 66.9 | 25 | 66.9 | 43 | 20% | 29.74 | 1001.8 | |||||
| 05 | 10:53 | W 13 G 16 | 10.00 | Fair | CLR | 64.9 | 30.9 | 28% | 29.76 | 1002.4 | |||||||
| 05 | 09:53 | N 3 | 10.00 | Fair | CLR | 62.1 | 32 | 32% | 29.78 | 1003.3 | |||||||
| 05 | 08:53 | W 5 | 10.00 | Partly Cloudy | SCT100 | 55.9 | 42.1 | 60% | 29.8 | 1004.2 | |||||||
| 05 | 07:53 | Vrbl 5 | 10.00 | Mostly Cloudy | BKN100 | 53.1 | 39.9 | 61% | 29.81 | 1005.1 | |||||||
| 05 | 06:53 | Calm | 10.00 | Fair | CLR | 45 | 37.9 | 77% | 29.8 | 1004.7 | |||||||
| 05 | 05:53 | Calm | 10.00 | A Few Clouds | FEW120 | 45 | 37 | 57.9 | 45 | 74% | 29.79 | 1004.4 | |||||
| 05 | 04:53 | N 3 | 10.00 | Partly Cloudy | SCT120 | 46.9 | 39 | 74% | 29.78 | 1004.0 | |||||||
| 05 | 03:53 | NW 3 | 10.00 | Partly Cloudy | SCT120 | 50 | 39 | 66% | 29.78 | 1003.5 | |||||||
| 05 | 02:53 | Calm | 10.00 | Fair | CLR | 50 | 37.9 | 63% | 29.78 | 1003.4 | |||||||
| 05 | 01:53 | NE 9 | 10.00 | Fair | CLR | 52 | 39 | 61% | 29.8 | 1004.1 | |||||||
| 05 | 00:53 | Calm | 10.00 | Fair | CLR | 55.9 | 39.9 | 55% | 29.81 | 1004.3 | |||||||
| 04 | 23:53 | E 5 | 10.00 | Fair | CLR | 57.9 | 39.9 | 71.1 | 57.9 | 51% | 29.8 | 1004.0 | |||||
| 04 | 22:53 | N 14 | 10.00 | Partly Cloudy | SCT110 | 59 | 39.9 | 49% | 29.8 | 1004.3 | |||||||
| 04 | 21:53 | N 7 | 10.00 | Overcast | OVC100 | 62.1 | 39 | 43% | 29.8 | 1004.4 | |||||||
| 04 | 20:53 | N 9 | 10.00 | Mostly Cloudy | BKN120 | 63 | 37 | 38% | 29.78 | 1003.3 | |||||||
| 04 | 19:53 | NW 15 | 10.00 | Partly Cloudy | SCT120 | 63 | 39 | 41% | 29.76 | 1003.1 | |||||||
| Date | Time (mdt) | Wind (mph) | Vis. (mi.) | Weather | Sky Cond. | Air | Dwpt | Max. | Min. | Relative Humidity | Wind Chill (°F) | Heat Index (°F) | altimeter (in) | sea level (mb) | 1 hr | 3 hr | 6 hr |
| 6 hour | |||||||||||||||||
| Temperature (ºF) | Pressure | Precipitation (in) | |||||||||||||||